Presure
250 272 266 275 293 261 313 414 399 458 416 187 95 250 229 141 206 169 157 188 161 182 169 176 163 180 161 122 167 161 134 181 178 169 175 191 184 197 199 209 152 214 180
253 267 249 258 250 304 306 316 304 415 404 382 397 316 277 175 211 186 167 180 169 164 176 182 182 142 157 171 163 132 170 120 179 191 192 145 200 161 187 210 193 213 175
237 273 265 239 267 291 284 284 282 318 349 502 417 310 279 292 212 190 214 172 183 196 169 187 169 169 178 160 155 188 129 180 142 120 148 197 160 174 181 188 190 194 129
249 269 257 261 270 277 270 267 273 276 439 332 358 290 278 188 245 185 177 177 175 175 184 185 188 194 174 192 153 170 143 141 175 149 164 192 198 167 159 168 156 163 175
259 266 273 257 279 251 268 276 270 287 306 343 296 289 229 219 186 182 198 189 183 168 189 178 161 177 195 186 177 147 180 193 172 174 184 206 184 170 168 183 156 156 160
242 252 263 264 278 267 259 270 271 279 300 289 284 271 263 200 200 169 172 176 183 179 177 183 181 181 167 163 191 169 165 172 180 200 172 163 205 163 176 163 166 164 183
238 234 236 267 264 267 261 281 279 301 314 355 319 266 267 200 192 187 201 179 181 175 188 198 178 180 182 191 178 184 181 193 202 196 171 208 204 181 190 215 184 202 172
216 240 240 243 263 257 263 265 256 278 289 332 282 255 260 203 190 193 196 188 182 176 190 199 177 190 192 205 181 199 189 187 191 195 185 192 179 201 187 196 214 207 182
228 246 234 238 252 261 264 258 257 266 284 280 271 235 255 246 200 195 198 184 185 178 181 188 184 178 200 178 210 166 197 189 193 204 197 201 204 181 183 184 168 157 183
245 241 237 240 243 253 252 249 259 271 262 278 293 201 257 244 255 187 188 197 206 206 204 194 203 194 184 195 217 192 218 204 193 195 197 192 213 220 213 203 196 217 213
249 236 245 241 232 242 249 240 250 244 250 266 274 286 204 209 209 196 192 191 214 200 192 198 191 202 197 212 211 207 195 203 182 196 194 210 181 211 208 214 214 189 215
242 244 241 238 242 235 241 241 244 242 249 253 260 233 265 189 192 237 211 209 201 219 206 203 200 195 213 194 186 210 194 216 213 186 213 217 204 205 194 204 190 216 217
240 244 231 245 239 237 239 236 229 247 241 251 251 259 262 189 191 207 190 203 191 193 184 190 211 203 192 208 183 207 204 195 208 191 171 198 216 225 212 214 222 216 206
258 248 246 236 249 239 244 237 239 240 237 241 249 250 252 243 206 215 202 190 197 256 184 243 216 206 210 196 203 215 204 213 189 177 238 217 212 227 229 218 209 230 207
253 253 262 243 247 243 248 243 244 249 243 248 244 245 231 256 255 229 230 206 244 199 206 203 205 226 202 206 215 195 211 239 198 193 214 211 210 222 216 223 227 203 212
247 246 256 252 249 255 241 246 250 254 254 241 237 244 249 252 251 257 260 249 222 201 226 252 177 206 183 213 198 266 211 201 214 215 211 209 260 273 219 278 235 211 247
259 262 259 263 257 257 251 264 270 249 248 246 244 251 257 262 264 263 262 263 240 208 180 204 205 212 201 221 216 203 210 203 212 205 293 291 296 221 311 311 313 309 294
271 270 271 272 271 271 274 275 261 259 261 260 256 257 273 294 303 279 280 279 278 282 297 254 244 245 249 243 334 335 338 336 335 336 339 343 346 349 350 351 353 356 358
263 260 260 260 261 263 265 267 275 282 276 285 279 284 304 314 319 330 339 334 328 324 323 321 320 319 320 319 318 316 315 315 317 319 323 324 322 321 326 330 330 331 329
266 263 263 263 265 267 270 278 274 276 275 277 295 301 305 317 323 327 321 310 304 300 297 296 295 294 294 296 297 298 300 306 320 329 332 334 327 483 478 476 479 494 490
270 267 268 269 268 270 272 273 275 279 293 299 298 314 310 309 317 301 288 283 283 285 283 284 285 284 286 292 300 308 310 325 503 492 496 480 464 459 447 444 445 448 487
281 279 279 278 277 277 281 286 294 295 300 307 298 301 316 301 279 276 278 278 280 279 280 280 287 290 291 295 315 410 510 501 497 496 503 491 477 471 466 463 460 460 467
299 296 295 295 296 297 292 290 293 305 303 296 309 304 273 274 273 276 276 275 275 279 284 282 287 301 323 375 531 516 501 489 477 469 466 491 485 464 264 466 454 444 452
295 296 297 297 298 302 301 301 303 303 307 305 271 269 271 270 275 274 279 276 280 281 288 302 320 340 475 462 490 517 506 490 471 451 476 461 454 449 454 460 449 439 441
293 294 297 302 307 320 326 323 314 266 266 265 266 269 270 283 281 286 277 281 285 295 309 325 403 443 436 478 511 501 493 484 475 467 460 440 425 417 434 444 441 439 433
330 329 324 324 313 295 272 269 267 265 267 271 274 276 278 282 283 279 281 291 302 313 331 449 432 419 414 507 503 491 474 458 449 445 443 474 454 495 457 432 435 435 425
Wind_Speed
29 27 34 30 20 20 28 20 13 18 39 39 40 65 112 50 100 84 82 99 85 95 97 90 84 83 80 49 86 78 48 78 70 70 79 69 59 52 50 46 51 45 36
29 31 26 33 34 30 14 25 4 8 22 55 59 82 84 85 95 99 97 105 91 85 96 104 93 59 74 93 82 44 90 43 91 85 90 42 65 52 60 50 46 36 30
33 37 29 28 35 18 13 2 8 13 19 10 42 78 84 93 98 108 109 101 95 86 97 91 95 92 99 80 69 81 57 75 46 47 54 91 54 63 58 58 51 49 38
29 31 29 28 28 9 12 3 7 13 5 30 43 75 88 103 101 110 99 109 104 103 106 103 93 97 104 96 57 94 52 48 91 57 66 93 94 66 56 57 53 53 58
29 26 25 29 23 20 6 6 9 11 8 15 64 79 105 109 104 105 115 107 107 89 108 101 78 96 103 110 95 54 108 109 60 57 105 109 88 72 72 67 65 57 58
25 27 25 21 18 19 20 16 14 14 13 43 70 78 87 116 115 88 87 95 117 109 105 114 109 113 87 76 121 89 64 79 85 113 47 43 119 62 88 75 75 75 71
28 25 21 20 18 19 15 13 12 13 13 14 58 69 76 121 115 108 123 105 106 99 125 119 83 109 112 123 101 117 102 116 120 109 56 126 112 69 108 117 107 99 95
31 32 28 24 21 19 15 14 25 10 20 17 64 74 82 120 108 113 119 118 107 97 129 126 94 112 115 125 110 125 123 96 110 125 90 106 78 118 97 109 121 127 98
37 29 31 28 21 20 21 20 19 18 14 32 61 84 78 85 125 121 127 109 114 101 105 122 119 99 119 99 126 69 117 112 117 130 122 126 133 72 78 79 70 71 65
34 32 33 29 28 23 25 24 21 20 27 26 28 90 76 87 84 107 115 133 130 136 133 143 139 143 96 123 133 118 126 120 111 119 124 110 141 145 143 113 105 134 142
35 38 34 33 34 31 32 33 32 37 39 31 35 39 103 125 124 116 125 125 127 133 121 140 113 141 143 129 142 109 110 135 82 120 115 142 81 127 128 138 147 82 132
45 44 43 42 40 41 38 39 41 42 46 44 44 79 59 99 111 109 124 138 136 134 136 146 130 109 144 114 92 137 105 143 147 87 137 144 127 134 102 110 88 146 155
51 49 48 49 49 48 48 48 49 51 53 53 56 58 62 100 105 138 102 133 99 114 84 101 151 142 106 148 82 145 140 105 146 102 76 115 149 157 143 149 151 151 141
56 56 56 54 55 55 55 56 57 59 59 61 63 66 72 94 108 128 133 100 127 108 82 129 139 146 150 117 137 154 141 159 94 74 155 135 143 162 167 159 142 165 140
59 59 59 60 61 61 63 65 65 68 67 69 70 70 84 75 81 99 87 145 111 125 148 145 148 143 141 153 155 124 129 155 108 105 162 142 137 144 152 160 166 123 126
62 62 65 65 64 67 66 69 72 73 75 69 67 73 77 81 83 86 89 112 93 131 133 105 78 125 91 137 136 132 123 128 153 161 140 138 148 144 160 143 171 114 126
64 65 69 68 72 71 73 74 76 76 75 73 72 78 82 84 87 89 89 92 114 144 76 151 149 154 135 159 163 133 145 115 138 117 130 131 131 119 131 130 130 128 128
63 67 68 70 69 70 72 75 78 79 79 78 82 85 86 83 84 97 97 97 99 101 96 130 134 137 140 136 97 100 101 107 111 114 118 120 120 119 119 120 120 119 118
64 66 68 69 69 71 72 72 74 73 73 75 75 79 83 80 78 73 68 67 68 70 72 75 78 82 86 90 93 97 102 106 110 113 114 115 115 115 115 115 115 115 114
67 70 71 72 75 78 78 78 76 76 76 80 86 82 81 77 72 68 67 67 68 71 74 77 81 85 90 93 97 101 105 109 111 111 110 110 108 70 69 68 66 60 61
69 70 72 74 75 76 77 80 81 84 86 81 81 78 73 71 68 66 68 70 72 75 77 81 86 89 93 98 102 105 105 108 75 73 69 69 70 69 69 67 66 65 53
70 72 74 76 78 79 81 84 83 80 79 77 73 72 69 66 66 69 71 73 77 79 83 86 91 94 97 101 108 102 73 70 68 64 60 60 60 59 58 57 55 53 50
70 74 77 78 79 78 76 75 75 76 73 71 70 67 65 68 70 73 76 77 81 85 88 90 94 101 107 109 69 68 67 65 63 61 59 53 51 52 47 49 50 50 47
59 63 66 69 71 74 74 73 72 70 69 66 63 66 69 72 76 77 81 82 85 89 93 100 106 113 80 80 71 61 60 59 58 58 52 51 49 48 46 44 44 44 43
59 61 63 65 66 66 65 65 63 60 63 65 67 71 75 81 82 84 83 86 90 97 105 111 99 83 82 71 59 56 54 52 51 50 48 48 48 47 45 41 40 39 39
49 52 55 56 55 56 57 60 61 63 67 72 75 77 80 83 84 85 88 94 100 106 113 79 81 81 80 59 56 52 51 50 50 48 47 41 42 35 38 39 37 36 36
Wind_Direction
281 283 283 302 285 316 346 7 289 232 216 242 275 219 201 231 206 233 245 218 248 222 240 236 255 235 257 270 261 270 273 265 270 276 275 274 264 264 261 261 270 261 256
289 286 295 296 299 9 3 42 58 357 219 213 220 207 200 235 214 214 237 226 241 250 234 230 231 275 274 246 264 264 262 262 270 265 269 273 266 261 267 260 264 258 263
277 280 278 276 287 35 23 182 161 314 252 227 228 207 207 206 204 211 211 235 226 218 244 230 244 246 240 263 275 246 269 256 275 261 279 262 266 264 270 269 262 261 269
289 281 288 291 302 336 94 61 273 248 314 216 211 204 204 213 204 217 228 229 233 237 226 227 232 230 243 237 280 256 269 271 259 275 271 257 257 264 268 265 269 265 271
295 294 295 287 288 259 274 247 271 272 222 170 206 206 198 201 221 224 214 223 224 254 227 237 269 246 230 239 248 266 253 247 270 264 272 257 259 263 262 256 272 270 269
283 287 299 300 267 274 249 279 243 243 248 194 210 200 204 207 208 243 245 240 226 235 246 235 239 243 266 277 241 272 279 275 269 251 279 251 262 269 262 270 270 274 261
275 265 274 283 282 267 278 310 292 293 276 273 212 202 206 207 216 224 212 238 232 251 231 227 245 246 249 240 262 252 260 248 247 254 268 255 260 274 257 251 261 253 268
266 269 274 281 288 271 254 267 223 232 249 251 209 204 209 210 225 224 219 226 233 251 233 228 258 241 244 236 258 243 251 257 257 256 267 265 274 266 266 270 264 257 273
257 254 262 269 278 267 264 230 234 242 247 223 216 212 213 213 216 223 215 235 237 251 251 242 249 261 238 266 241 271 249 262 257 250 260 259 258 279 275 279 256 261 275
240 246 251 260 268 254 254 250 255 252 233 233 236 226 222 217 221 232 232 223 225 225 229 235 235 243 263 252 237 259 241 250 265 262 262 274 256 256 259 271 279 265 268
241 247 243 242 246 254 248 243 246 234 229 240 237 239 222 212 217 228 229 235 226 231 244 238 249 242 247 242 242 246 250 254 276 269 261 257 278 264 271 264 265 276 269
247 246 244 241 236 241 240 244 243 240 239 237 239 225 231 235 232 227 227 225 233 231 237 237 245 254 239 250 272 247 268 248 251 279 258 255 267 269 280 266 277 268 268
248 246 253 245 244 242 241 240 237 246 242 245 240 240 239 239 241 224 248 234 242 253 269 264 239 247 266 247 271 253 258 264 261 277 264 275 263 259 263 271 263 273 280
244 245 245 250 246 247 244 244 245 244 240 241 244 243 242 234 239 233 237 254 245 246 268 241 246 250 248 266 260 253 263 258 274 266 257 263 275 261 263 270 274 268 281
249 249 249 251 250 250 249 249 247 247 248 248 245 246 240 249 250 245 253 237 247 250 244 247 248 249 259 257 257 265 267 259 270 275 269 268 271 271 272 271 270 277 272
254 257 252 253 255 252 257 255 254 253 252 251 252 254 254 255 254 256 256 246 260 249 248 260 272 253 273 257 267 261 267 269 265 267 271 272 265 266 269 267 270 277 271
253 257 257 258 257 257 258 259 259 261 263 265 265 262 262 262 263 263 263 262 250 248 270 250 253 253 260 256 257 264 264 272 269 273 270 269 269 272 269 268 268 266 264
260 263 266 268 270 270 270 270 265 266 267 269 267 268 271 275 279 269 270 270 272 272 273 253 254 257 257 260 272 273 273 273 273 273 272 272 272 273 273 273 272 272 271
262 264 266 268 270 272 274 275 278 280 280 284 282 285 289 289 288 288 286 283 279 278 277 276 276 275 275 275 274 274 273 273 274 274 274 274 274 274 273 271 270 269 268
262 264 268 270 272 275 278 278 282 284 285 286 288 288 289 290 289 286 283 281 279 277 277 277 278 277 277 277 276 275 275 276 279 280 280 279 276 285 283 281 279 278 275
263 266 269 271 274 277 279 280 283 285 286 287 288 290 289 288 286 284 282 281 282 283 282 282 281 280 280 281 282 283 283 285 295 292 290 288 285 283 281 279 277 275 277
264 266 269 272 274 277 279 281 284 285 287 289 288 287 287 285 283 283 284 285 286 286 285 285 286 286 286 286 288 296 299 296 294 292 290 287 284 282 281 280 279 278 276
267 269 271 273 276 278 279 281 284 286 287 286 286 285 286 287 287 289 289 289 288 288 290 289 290 292 294 299 302 299 297 295 293 291 289 287 284 281 275 278 277 276 275
275 276 276 277 279 279 281 283 284 285 285 285 288 289 290 290 291 291 291 291 292 293 294 296 299 302 306 305 303 300 297 294 291 289 287 285 282 280 279 277 274 273 273
277 278 278 279 280 281 283 284 285 286 288 289 291 292 292 293 294 295 295 296 298 299 302 303 306 308 308 307 303 301 299 296 292 288 285 281 279 277 276 273 271 270 269
282 281 281 282 284 285 284 285 287 289 292 293 293 294 295 296 297 298 300 301 303 304 305 309 309 309 309 307 305 304 300 296 292 288 285 277 274 264 267 268 267 266 265